Date String (YYYY-MM-DD hh:mm:ss) UTC,Instrument flags,Ambient pressure (hPa),Sample flow (lpm),Bypass flow (lpm),Sample temperature (°C),Ambient temperature (°C),ASC tube jacket temperature (°C),LED temperature (°C),Box temperature (°C),Sample RH (%),Span deviation,Mass concentration (μg/m³),Mass concentration (μg/m³),Mass concentration (μg/m³)
DateTimeUTC,F1_M11,P_M11,Q1_M11,Q2_M11,T1_M11,T2_M11,T3_M11,T4_M11,T5_M11,U1_M11,ZSPAN_M11,X0_M11,X2_M11,X1_M11
2022-03-04 12:00:00,,0820.0,5.00,0.00,25.7,24.9,00.0,34.8,27.5,14.5,0000.1,0036.37,0016.98,0014.02
2022-03-04 12:01:00,,0820.0,5.00,0.00,25.7,24.9,00.0,34.8,27.4,14.5,0000.0,0036.28,0016.91,0014.03
2022-03-04 12:02:00,,0820.0,5.01,0.00,25.7,24.8,00.0,34.7,27.4,14.5,-000.4,0037.03,0016.90,0014.04
2022-03-04 12:03:00,,0820.0,4.98,0.00,25.7,24.8,00.0,34.7,27.4,14.6,-000.5,0037.38,0016.92,0014.05
2022-03-04 12:04:00,,0820.0,5.01,0.00,25.7,24.8,00.0,34.7,27.5,14.5,0000.3,0036.44,0016.99,0014.09
2022-03-04 12:05:00,,0819.9,5.01,0.00,25.7,24.9,00.0,34.7,27.5,14.5,0000.5,0035.46,0017.02,0014.13
2022-03-04 12:06:00,,0819.9,5.00,0.00,25.7,24.9,00.0,34.7,27.5,14.5,0000.4,0034.67,0017.00,0014.14
2022-03-04 12:07:00,,0819.9,4.99,0.00,25.7,24.9,00.0,34.7,27.5,14.5,0000.2,0034.02,0017.02,0014.13
2022-03-04 12:08:00,,0819.9,5.01,0.00,25.7,24.9,00.0,34.7,27.5,14.5,0000.3,0033.94,0016.98,0014.12
2022-03-04 12:09:00,,0819.9,5.01,0.00,25.7,24.9,00.0,34.7,27.5,14.5,0000.7,0034.19,0016.93,0014.09
2022-03-04 12:10:00,,0819.9,5.00,0.00,25.7,24.9,00.0,34.7,27.5,14.5,0001.0,0034.59,0016.90,0014.08
2022-03-04 12:11:00,,0819.9,4.99,0.00,25.7,24.9,00.0,34.7,27.5,14.5,0000.8,0034.06,0016.85,0014.04
2022-03-04 12:12:00,,0819.9,5.01,0.00,25.7,24.9,00.0,34.7,27.5,14.5,0000.5,0033.30,0016.75,0013.99
2022-03-04 12:13:00,,0820.0,5.01,0.00,25.7,24.9,00.0,34.7,27.5,14.5,0000.5,0031.81,0016.72,0013.96
2022-03-04 12:14:00,,0819.9,5.01,0.00,25.7,24.9,00.0,34.7,27.5,14.5,0000.5,0031.77,0016.68,0013.92
2022-03-04 12:15:00,,0819.9,5.00,0.00,25.7,25.0,00.0,34.7,27.6,14.3,0000.2,0032.32,0016.54,0013.83
2022-03-04 12:16:00,,0819.9,4.99,0.00,25.7,25.0,00.0,34.7,27.6,14.2,0000.2,0033.23,0016.35,0013.72
2022-03-04 12:17:00,,0819.9,5.00,0.00,25.7,25.0,00.0,34.7,27.6,14.2,0000.0,0033.14,0016.27,0013.63
2022-03-04 12:18:00,,0819.9,5.01,0.00,25.7,25.0,00.0,34.7,27.6,14.0,-000.0,0033.19,0016.17,0013.51
2022-03-04 12:19:00,,0819.9,4.98,0.00,25.7,25.0,00.0,34.7,27.6,14.0,-000.4,0032.96,0016.02,0013.36
2022-03-04 12:20:00,,0819.9,5.00,0.00,25.7,25.0,00.0,34.7,27.6,14.0,-000.7,0032.37,0015.90,0013.25
2022-03-04 12:21:00,,0819.9,5.00,0.00,25.7,25.0,00.0,34.7,27.6,14.0,-000.7,0031.80,0015.87,0013.19
2022-03-04 12:22:00,,0819.9,5.00,0.00,25.8,25.0,00.0,34.7,27.6,14.0,-000.3,0032.99,0015.79,0013.13
2022-03-04 12:23:00,,0819.9,5.00,0.00,25.8,25.0,00.0,34.7,27.6,14.0,0000.1,0033.42,0015.79,0013.09
2022-03-04 12:24:00,,0819.9,4.99,0.00,25.8,25.0,00.0,34.7,27.6,14.1,0000.8,0034.37,0015.80,0013.06
2022-03-04 12:25:00,,0819.9,5.00,0.00,25.8,25.0,00.0,34.7,27.6,14.0,0001.5,0035.04,0015.79,0013.02
2022-03-04 12:26:00,,0819.9,5.00,0.00,25.8,25.0,00.0,34.7,27.6,14.0,0001.4,0034.16,0015.79,0013.01
2022-03-04 12:27:00,,0819.9,5.01,0.00,25.8,25.0,00.0,34.7,27.6,14.0,0001.5,0033.21,0015.79,0012.99
2022-03-04 12:28:00,,0819.9,5.01,0.00,25.8,25.0,00.0,34.7,27.6,14.0,0001.5,0034.13,0015.76,0012.98
2022-03-04 12:29:00,,0819.9,5.00,0.00,25.8,25.0,00.0,34.7,27.6,14.0,0001.3,0034.58,0015.78,0013.02
2022-03-04 12:30:00,,0819.9,4.99,0.00,25.8,25.0,00.0,34.7,27.6,14.0,0001.0,0035.13,0015.82,0013.06
2022-03-04 12:31:00,,0819.9,5.01,0.00,25.8,25.0,00.0,34.7,27.6,14.1,0001.0,0035.69,0015.86,0013.10
2022-03-04 12:32:00,,0819.9,5.00,0.00,25.8,25.0,00.0,34.7,27.6,14.2,0001.0,0036.31,0015.91,0013.13
2022-03-04 12:33:00,,0819.9,5.00,0.00,25.8,25.0,00.0,34.7,27.6,14.2,0000.8,0034.70,0015.89,0013.13
2022-03-04 12:34:00,,0819.9,5.00,0.00,25.8,25.0,00.0,34.7,27.6,14.1,0000.9,0033.91,0015.89,0013.12
2022-03-04 12:35:00,,0819.9,5.00,0.00,25.8,25.0,00.0,34.7,27.6,14.1,0000.6,0033.57,0015.86,0013.10
2022-03-04 12:36:00,,0819.9,5.00,0.00,25.8,25.0,00.0,34.7,27.6,14.0,0000.5,0032.57,0015.81,0013.08
2022-03-04 12:37:00,,0819.9,4.99,0.00,25.8,25.0,00.0,34.7,27.6,14.0,0000.6,0032.83,0015.78,0013.05
2022-03-04 12:38:00,,0819.9,5.00,0.00,25.8,25.0,00.0,34.7,27.6,13.9,0000.4,0033.50,0015.77,0013.02
2022-03-04 12:39:00,,0819.9,5.00,0.00,25.8,25.0,00.0,34.7,27.6,13.9,0000.6,0032.78,0015.75,0013.00
2022-03-04 12:40:00,,0819.8,5.00,0.00,25.8,25.0,00.0,34.7,27.6,13.9,0000.8,0032.12,0015.68,0012.95
2022-03-04 12:41:00,,0819.8,5.01,0.00,25.8,25.0,00.0,34.7,27.6,13.9,0001.0,0031.24,0015.62,0012.95
2022-03-04 12:42:00,,0819.8,5.01,0.00,25.8,25.0,00.0,34.7,27.6,13.9,0001.3,0031.32,0015.67,0012.98
2022-03-04 12:43:00,,0819.8,5.01,0.00,25.8,25.0,00.0,34.7,27.6,13.9,0001.3,0030.96,0015.62,0012.97
2022-03-04 12:44:00,,0819.9,5.00,0.00,25.8,25.0,00.0,34.7,27.6,13.9,0001.4,0030.44,0015.56,0012.94
2022-03-04 12:45:00,,0819.9,4.99,0.00,25.8,25.0,00.0,34.7,27.6,13.8,0001.1,0031.25,0015.61,0012.94
2022-03-04 12:46:00,,0819.9,5.00,0.00,25.8,25.0,00.0,34.7,27.6,13.8,0001.0,0032.38,0015.54,0012.91
2022-03-04 12:47:00,,0819.8,5.00,0.00,25.8,25.0,00.0,34.7,27.6,13.8,0000.9,0032.28,0015.48,0012.88
2022-03-04 12:48:00,,0819.8,5.01,0.00,25.8,25.0,00.0,34.7,27.6,13.8,0000.5,0032.73,0015.48,0012.88
2022-03-04 12:49:00,,0819.8,5.00,0.00,25.8,25.0,00.0,34.7,27.6,13.9,0000.3,0032.22,0015.49,0012.89
2022-03-04 12:50:00,,0819.8,5.01,0.00,25.8,25.0,00.0,34.7,27.6,13.9,0000.3,0032.98,0015.57,0012.91
2022-03-04 12:51:00,,0819.8,5.00,0.00,25.8,25.0,00.0,34.7,27.6,14.0,0000.4,0034.33,0015.65,0012.95
2022-03-04 12:52:00,,0819.8,5.00,0.00,25.8,24.9,00.0,34.7,27.6,13.9,0000.5,0034.64,0015.70,0012.98
2022-03-04 12:53:00,,0819.7,5.00,0.00,25.8,24.9,00.0,34.7,27.6,14.0,0000.2,0034.16,0015.63,0012.93
2022-03-04 12:54:00,,0819.7,5.00,0.00,25.8,24.9,00.0,34.7,27.6,13.8,0000.3,0034.49,0015.57,0012.86
2022-03-04 12:55:00,,0819.7,5.00,0.00,25.8,24.9,00.0,34.7,27.6,13.8,0000.2,0034.54,0015.57,0012.81
2022-03-04 12:56:00,,0819.7,5.01,0.00,25.8,24.9,00.0,34.7,27.5,13.7,0000.4,0034.02,0015.47,0012.78
2022-03-04 12:57:00,,0819.7,5.01,0.00,25.7,24.9,00.0,34.7,27.5,14.1,0000.7,0033.43,0015.58,0012.86
2022-03-04 12:58:00,,0819.6,5.00,0.00,25.7,24.9,00.0,34.7,27.5,14.3,0000.8,0033.02,0015.74,0012.96
2022-03-04 12:59:00,,0819.6,5.00,0.00,25.7,24.9,00.0,34.7,27.5,14.2,0001.1,0033.00,0015.86,0012.98
